This is the latest recevied weather packets stored in our database for station/object K1TTC. If no packets are shown the sender has not sent any weather packets the latest 10 day(s).
| Time | Temp. | Humidity | Pressure | Rain* | Wind** | Luminosity | Snow |
|---|---|---|---|---|---|---|---|
| 1777637883 | 8.89° C | 63% | 1011.1 hPa | 0 mm | - | 471 W/m² | - |
| 1777637283 | 8.33° C | 64% | 1011 hPa | 0 mm | - | 443 W/m² | - |
| 1777636682 | 8.33° C | 65% | 1011 hPa | 0 mm | - | 40 W/m² | - |
| 1777636083 | 7.78° C | 66% | 1011 hPa | 0 mm | - | 39 W/m² | - |
| 1777635482 | 7.78° C | 67% | 1010.9 hPa | 0 mm | - | 44 W/m² | - |
| 1777634880 | 7.22° C | 69% | 1010.6 hPa | 0 mm | - | 51 W/m² | - |
| 1777634282 | 6.67° C | 70% | 1010.6 hPa | 0 mm | - | 37 W/m² | - |
| 1777633680 | 6.67° C | 70% | 1010.6 hPa | 0 mm | - | 79 W/m² | - |
| 1777633079 | 6.67° C | 71% | 1010.7 hPa | 0 mm | - | 40 W/m² | - |
| 1777632478 | 6.67° C | 71% | 1010.6 hPa | 0 mm | - | 32 W/m² | - |
| 1777631877 | 6.11° C | 71% | 1010.6 hPa | 0 mm | - | 67 W/m² | - |
| 1777631370 | 6.11° C | 71% | 1010.6 hPa | 0 mm | - | 62 W/m² | - |
| 1777630676 | 6.11° C | 70% | 1010.5 hPa | 0 mm | - | 21 W/m² | - |
| 1777630170 | 6.11° C | 70% | 1010.5 hPa | 0 mm | - | 14 W/m² | - |
| 1777629476 | 6.67° C | 70% | 1010.3 hPa | 0 mm | - | 11 W/m² | - |
| 1777628874 | 6.67° C | 70% | 1010.3 hPa | 0 mm | - | 5 W/m² | - |
| 1777628275 | 6.67° C | 70% | 1010.3 hPa | 0 mm | - | 0 W/m² | - |
| 1777627767 | 6.67° C | 70% | 1010.1 hPa | 0 mm | - | 0 W/m² | - |
| 1777627072 | 6.67° C | 70% | 1010.1 hPa | 0 mm | - | 0 W/m² | - |
| 1777626471 | 7.22° C | 70% | 1010 hPa | 0 mm | - | 0 W/m² | - |
| 1777625868 | 7.22° C | 69% | 1010.1 hPa | 0 mm | - | 0 W/m² | - |
| 1777625351 | 7.22° C | 69% | 1009.9 hPa | 0 mm | - | 0 W/m² | - |
| 1777624748 | 7.22° C | 69% | 1009.8 hPa | 0 mm | - | 0 W/m² | - |
| 1777624068 | 7.78° C | 69% | 1009.6 hPa | 0 mm | - | 0 W/m² | - |
| 1777623468 | 7.78° C | 69% | 1009.6 hPa | 0 mm | - | 0 W/m² | - |
* Rain latest hour (hover to see other rain measurements)
** Current wind speed in m/s (hover to see current wind gust speed)